Redding, CA

9:08 AM PST on November 17, 2019 (GMT -0800)
Redding Municipal

Weather History for KRDD - September, 2019

Change the Weather History Date:

Monday, September 9, 2019

  Actual Average Record
Temperature  
Mean Temperature 71 °F -  
Max Temperature 85 °F 92 °F 110 °F (1944)
Min Temperature 57 °F 59 °F 50 °F (1980)
Degree Days  
Heating Degree Days 0    
Cooling Degree Days 6    
Growing Degree Days 20 (Base 50)    
Moisture  
Dew Point 45 °F    
Average Humidity 47    
Maximum Humidity 72    
Minimum Humidity 22    
Precipitation  
Precipitation 0.00 in 0.01 in 1.37 in (1985)
Month to date precipitation T 0.15  
Year to date precipitation 32.27 21.28  
Sea Level Pressure  
Sea Level Pressure 29.85 in    
Wind  
Wind Speed 2 mph (WNW)    
Max Wind Speed 15 mph    
Max Gust Speed 18 mph    
Visibility 10 miles    
Events      
T = Trace of Precipitation, MM = Missing Value Source: NWS Daily Summary

Daily Weather History Graph

Daily Weather History Graph

Search for Another Location

Airport or City:

Astronomy

Sep. 09, 2019 Rise Set
Actual Time 6:44 AM PDT 7:28 PM PDT
Civil Twilight 6:16 AM PDT 7:55 PM PDT
Nautical Twilight 5:43 AM PDT 8:28 PM PDT
Astronomical Twilight 5:09 AM PDT 9:02 PM PDT
Moon 5:28 PM PDT (9/9) 2:19 AM PDT (9/9)
Length of Visible Light 13h 39m
Length of Day
12h 44m
Waxing Gibbous, 83% of the Moon is Illuminated
Sep 9
Waxing Gibbous
Sep 13
Full
Sep 21
Last Quarter
Sep 28
New
Oct 5
First Quarter

Hourly Weather History & Observations

Time (PDT) Temp. Dew Point Humidity Pressure Visibility Wind Dir Wind Speed Gust Speed Precip Events Conditions
12:53 AM 66.9 °F 48.0 °F 51% 29.91 in 10.0 mi Calm Calm - N/A   Clear
1:53 AM 63.0 °F 48.0 °F 58% 29.91 in 10.0 mi Calm Calm - N/A   Clear
2:53 AM 62.1 °F 48.0 °F 60% 29.90 in 10.0 mi North 4.6 mph - N/A   Clear
3:53 AM 61.0 °F 48.0 °F 62% 29.91 in 10.0 mi NNW 3.5 mph - N/A   Clear
4:53 AM 60.1 °F 48.0 °F 64% 29.90 in 10.0 mi Calm Calm - N/A   Clear
5:53 AM 57.9 °F 48.0 °F 70% 29.89 in 10.0 mi Calm Calm - N/A   Clear
6:53 AM 57.0 °F 48.0 °F 72% 29.90 in 10.0 mi Calm Calm - N/A   Clear
7:53 AM 61.0 °F 48.9 °F 64% 29.91 in 10.0 mi Calm Calm - N/A   Clear
8:53 AM 66.0 °F 48.9 °F 54% 29.91 in 10.0 mi Calm Calm - N/A   Clear
9:53 AM 72.0 °F 48.0 °F 43% 29.91 in 10.0 mi Calm Calm - N/A   Clear
10:53 AM 77.0 °F 46.9 °F 34% 29.89 in 10.0 mi Variable 3.5 mph - N/A   Clear
11:53 AM 79.0 °F 45.0 °F 30% 29.88 in 10.0 mi Variable 5.8 mph - N/A   Clear
12:53 PM 81.0 °F 41.0 °F 24% 29.85 in 10.0 mi Calm Calm - N/A   Partly Cloudy
1:53 PM 82.0 °F 41.0 °F 23% 29.83 in 10.0 mi Variable 4.6 mph - N/A   Clear
2:53 PM 84.0 °F 41.0 °F 22% 29.80 in 10.0 mi NE 4.6 mph - N/A   Clear
3:53 PM 84.0 °F 41.0 °F 22% 29.78 in 10.0 mi South 9.2 mph - N/A   Scattered Clouds
4:53 PM 82.0 °F 41.0 °F 23% 29.77 in 10.0 mi South 9.2 mph - N/A   Partly Cloudy
6:53 PM 81.0 °F 44.1 °F 27% 29.75 in 10.0 mi South 10.4 mph - N/A   Scattered Clouds
7:53 PM 78.1 °F 39.0 °F 25% 29.76 in 10.0 mi WNW 5.8 mph - N/A   Scattered Clouds
8:53 PM 75.0 °F 39.9 °F 28% 29.77 in 10.0 mi WNW 4.6 mph - N/A   Scattered Clouds
9:53 PM 73.0 °F 42.1 °F 33% 29.78 in 10.0 mi WNW 4.6 mph - N/A   Clear
10:53 PM 72.0 °F 43.0 °F 35% 29.80 in 10.0 mi West 3.5 mph - N/A   Clear
11:53 PM 71.1 °F 44.1 °F 38% 29.81 in 10.0 mi West 5.8 mph - N/A   Scattered Clouds